Simultaneous Nadir Overpasses (SNOs) Predictions

Prediction of SNOs between NOAA-21 and LANDSAT-8 Satellite Orbit:

Table of predicted SNOs for the next 14.0 days since TLE Epoch: 3/9/2024
Index Date (NOAA-21) Time (NOAA-21) Lat,Lon (NOAA-21) SZA (NOAA-21 ) Date (LANDSAT-8) Time (LANDSAT-8) Lat,Lon (LANDSAT-8) SZA (LANDSAT-8 ) Distance(km) Time Diff (sec)
1 03/09/2024 15:43:13 69.96, -59.67 74.11 03/09/2024 15:43:37 69.98, -59.72 74.13 3.29 24
2 03/09/2024 16:33:55 -69.87, 107.79 106.00 03/09/2024 16:33:07 -69.86, 107.74 106.00 1.97 48
3 03/12/2024 07:09:26 -70.04,-111.33 106.85 03/12/2024 07:10:38 -70.05,-111.40 106.86 2.56 72
4 03/12/2024 08:00:10 69.92, 56.15 73.02 03/12/2024 08:00:05 69.95, 56.11 73.04 3.23 5
5 03/12/2024 08:50:49 -69.67,-136.16 107.27 03/12/2024 08:49:37 -69.72,-136.57 107.19 17.01 72
6 03/14/2024 23:26:24 -70.01, 4.47 107.95 03/14/2024 23:27:06 -70.04, 4.47 107.92 3.68 42
7 03/15/2024 00:17:08 69.90, 171.95 71.92 03/15/2024 00:16:34 69.88, 171.90 71.92 2.59 34
8 03/17/2024 14:52:49 70.56, -47.95 71.59 03/17/2024 14:53:58 70.45, -46.70 71.42 48.40 69
9 03/17/2024 15:43:22 -69.99, 120.27 109.04 03/17/2024 15:43:34 -70.01, 120.30 109.02 2.48 12
10 03/17/2024 16:34:06 69.88, -72.26 70.84 03/17/2024 16:33:01 69.90, -72.20 70.87 3.10 65
11 03/20/2024 07:09:37 70.03, 68.65 69.96 03/20/2024 07:10:32 70.05, 68.61 69.97 2.45 55
12 03/20/2024 08:00:19 -69.92,-123.87 110.17 03/20/2024 08:00:02 -69.94,-123.91 110.15 2.23 17
13 03/20/2024 08:50:49 69.07, 44.66 68.93 03/20/2024 08:49:42 69.11, 42.62 69.05 81.06 67
14 03/22/2024 23:26:33 69.98,-175.51 68.84 03/22/2024 23:26:58 70.00,-175.56 68.86 3.34 25
15 03/23/2024 00:17:16 -69.92, -8.11 111.23 03/23/2024 00:16:28 -69.90, -8.08 111.25 2.90 48



Historial Predications of SNOs between NOAA-21 and LANDSAT-8
